TimeCDT,TemperatureF,Dew PointF,Humidity,Sea Level PressureIn,VisibilityMPH,Wind Direction,Wind SpeedMPH,Gust SpeedMPH,PrecipitationIn,Events,Conditions,WindDirDegrees,DateUTC
12:56 AM,80.1,79.0,96,29.81,10.0,Calm,Calm,-,0.01,,Mostly Cloudy,0,2013-09-20 05:56:00
1:20 AM,80.6,78.8,94,29.81,1.8,SE,4.6,-,0.08,Rain,Heavy Rain,140,2013-09-20 06:20:00
1:22 AM,80.6,78.8,94,29.81,2.0,SE,3.5,-,0.08,Rain,Light Rain,130,2013-09-20 06:22:00
1:26 AM,80.6,78.8,94,29.81,4.0,SE,3.5,-,0.08,Rain,Light Rain,130,2013-09-20 06:26:00
1:56 AM,80.1,79.0,96,29.81,10.0,Calm,Calm,-,0.08,,Overcast,0,2013-09-20 06:56:00
2:56 AM,79.0,78.1,97,29.79,10.0,SE,3.5,-,0.00,,Partly Cloudy,140,2013-09-20 07:56:00
3:56 AM,79.0,78.1,97,29.76,10.0,SSE,3.5,-,N/A,,Clear,160,2013-09-20 08:56:00
4:33 AM,78.8,78.8,100,29.77,10.0,SSE,4.6,-,N/A,,Mostly Cloudy,150,2013-09-20 09:33:00
4:54 AM,78.8,78.8,100,29.77,9.0,SSE,3.5,-,N/A,,Mostly Cloudy,160,2013-09-20 09:54:00
4:56 AM,79.0,78.1,97,29.76,9.0,SSE,3.5,-,0.01,,Mostly Cloudy,160,2013-09-20 09:56:00
5:56 AM,79.0,78.1,97,29.76,8.0,Calm,Calm,-,0.00,Rain,Light Rain,0,2013-09-20 10:56:00
6:56 AM,79.0,78.1,97,29.76,10.0,Calm,Calm,-,0.00,,Mostly Cloudy,0,2013-09-20 11:56:00
7:56 AM,79.0,78.1,97,29.77,6.0,SE,3.5,-,N/A,,Mostly Cloudy,130,2013-09-20 12:56:00
8:56 AM,81.0,80.1,97,29.78,9.0,SSE,5.8,-,N/A,,Mostly Cloudy,150,2013-09-20 13:56:00
9:56 AM,84.9,81.0,88,29.79,10.0,South,12.7,-,N/A,,Overcast,170,2013-09-20 14:56:00
10:56 AM,87.1,80.1,80,29.78,10.0,South,13.8,-,N/A,,Mostly Cloudy,180,2013-09-20 15:56:00
11:12 AM,82.4,77.0,84,29.80,1.5,SSE,17.3,32.2,0.11,Rain,Rain,160,2013-09-20 16:12:00
11:22 AM,78.8,77.0,94,29.80,2.0,SE,12.7,29.9,0.22,Rain,Light Rain,140,2013-09-20 16:22:00
11:28 AM,80.6,78.8,94,29.79,1.0,South,15.0,20.7,0.32,Rain,Heavy Rain,190,2013-09-20 16:28:00
11:36 AM,80.6,80.6,100,29.79,4.0,SSE,4.6,-,0.33,,Overcast,150,2013-09-20 16:36:00
11:42 AM,82.4,80.6,94,29.78,10.0,SSE,8.1,-,0.33,,Mostly Cloudy,150,2013-09-20 16:42:00
11:56 AM,84.9,81.0,88,29.77,10.0,SSE,11.5,-,0.33,,Mostly Cloudy,160,2013-09-20 16:56:00
12:56 PM,88.0,80.1,77,29.75,10.0,SSE,10.4,-,N/A,,Mostly Cloudy,150,2013-09-20 17:56:00
1:49 PM,84.2,77.0,79,29.75,10.0,South,23.0,27.6,N/A,Thunderstorm,Thunderstorm,190,2013-09-20 18:49:00
1:56 PM,82.9,77.0,82,29.74,10.0,South,19.6,27.6,0.00,Rain-Thunderstorm,Light Thunderstorms and Rain,190,2013-09-20 18:56:00
2:08 PM,80.6,78.8,94,29.75,1.8,South,13.8,23.0,0.08,Rain-Thunderstorm,Heavy Thunderstorms and Rain,190,2013-09-20 19:08:00
2:20 PM,80.6,78.8,94,29.74,3.0,SSE,9.2,-,0.14,Rain-Thunderstorm,Thunderstorms and Rain,160,2013-09-20 19:20:00
2:28 PM,80.6,78.8,94,29.73,10.0,SSE,8.1,-,0.14,Rain,Light Rain,160,2013-09-20 19:28:00
2:37 PM,82.4,78.8,89,29.73,10.0,SSE,6.9,-,0.14,,Overcast,150,2013-09-20 19:37:00
2:56 PM,82.9,79.0,88,29.72,10.0,SSE,8.1,-,0.14,,Overcast,160,2013-09-20 19:56:00
3:56 PM,84.9,81.0,88,29.70,10.0,SE,10.4,-,N/A,,Mostly Cloudy,140,2013-09-20 20:56:00
4:46 PM,84.2,80.6,89,29.71,6.0,SSE,11.5,-,0.00,Rain,Light Rain,150,2013-09-20 21:46:00
4:56 PM,84.9,81.0,88,29.71,6.0,SE,6.9,-,0.01,Rain,Light Rain,140,2013-09-20 21:56:00
5:00 PM,84.2,82.4,94,29.71,9.0,SE,5.8,-,0.00,,Mostly Cloudy,130,2013-09-20 22:00:00
5:56 PM,86.0,81.0,85,29.68,10.0,SSE,13.8,-,0.00,,Mostly Cloudy,150,2013-09-20 22:56:00
6:56 PM,84.0,80.1,88,29.70,10.0,SSE,13.8,-,N/A,,Overcast,150,2013-09-20 23:56:00
7:56 PM,81.0,79.0,94,29.69,10.0,SE,5.8,-,0.00,,Overcast,140,2013-09-21 00:56:00
8:56 PM,82.0,79.0,90,29.71,10.0,East,3.5,-,N/A,Thunderstorm,Thunderstorm,100,2013-09-21 01:56:00
9:16 PM,80.6,78.8,94,29.73,10.0,NNW,10.4,-,N/A,,Mostly Cloudy,340,2013-09-21 02:16:00
9:37 PM,82.4,80.6,94,29.74,10.0,NNE,5.8,-,N/A,Thunderstorm,Thunderstorm,30,2013-09-21 02:37:00
9:45 PM,80.6,77.0,89,29.74,10.0,North,11.5,18.4,N/A,Thunderstorm,Thunderstorm,350,2013-09-21 02:45:00
9:52 PM,78.8,75.2,89,29.74,10.0,North,12.7,-,N/A,,Overcast,360,2013-09-21 02:52:00
9:56 PM,79.0,75.9,90,29.73,10.0,North,12.7,-,N/A,,Overcast,10,2013-09-21 02:56:00
10:22 PM,78.8,75.2,89,29.75,10.0,North,10.4,-,N/A,,Overcast,10,2013-09-21 03:22:00
10:56 PM,78.1,77.0,96,29.74,8.0,NNW,9.2,-,0.01,Rain-Thunderstorm,Light Thunderstorms and Rain,340,2013-09-21 03:56:00
11:28 PM,75.2,75.2,100,29.77,1.8,NW,17.3,-,0.20,Rain-Thunderstorm,Heavy Thunderstorms and Rain,320,2013-09-21 04:28:00
11:36 PM,75.2,75.2,100,29.78,0.8,NW,15.0,24.2,0.50,Rain-Thunderstorm,Heavy Thunderstorms and Rain,310,2013-09-21 04:36:00
11:56 PM,75.0,73.9,96,29.77,0.8,NNW,17.3,-,1.41,Rain-Thunderstorm,Heavy Thunderstorms and Rain,340,2013-09-21 04:56:00